Weather History for Lee's Summit, MO

Change the Weather History Date:

Monday, November 19, 2012

  Actual Average (KMKC) Record (KMKC)
Temperature  
Mean Temperature 56 °F -  
Max Temperature 63 °F 51 °F 77 °F (2007)
Min Temperature 48 °F 34 °F 27 °F (2006)
Degree Days  
Heating Degree Days 10    
Growing Degree Days 6 (Base 50)    
Moisture  
Dew Point 44 °F    
Average Humidity 67    
Maximum Humidity 90    
Minimum Humidity 42    
Precipitation  
Precipitation 0.00 in - - ()
Sea Level Pressure  
Sea Level Pressure 30.12 in    
Wind  
Wind Speed 11 mph (SSW)    
Max Wind Speed 15 mph    
Max Gust Speed 22 mph    
Visibility 10 miles    
Events Rain    
Averages and records for this station are not official NWS values.
T = Trace of Precipitation, MM = Missing Value Source: NWS Daily Summary

Daily Weather History Graph

Daily Weather History Graph

Search for Another Location

Airport:

Trip Planner

Search our weather history database for the weather conditions in past years. The results will help you decide how hot, cold, wet, or windy it might be!

Date:

Astronomy

Nov. 19, 2012 Rise Set
Actual Time 7:05 AM CST 5:00 PM CST
Civil Twilight 6:36 AM CST 5:29 PM CST
Nautical Twilight 6:03 AM CST 6:01 PM CST
Astronomical Twilight 5:32 AM CST 6:33 PM CST
Moon 12:09 PM CST (11/19) 11:26 PM CST (11/19)
Length of Visible Light 10h 52m
Length of Day
9h 55m
Waxing Crescent, 41% of the Moon is Illuminated
Nov 19
Waxing Crescent
Nov 20
First Quarter
Nov 28
Full
Dec 6
Last Quarter
Dec 13
New

Hourly Weather History & Observations

Time (CST) Temp. Dew Point Humidity Pressure Visibility Wind Dir Wind Speed Gust Speed Precip Events Conditions
12:53 AM 55.0 °F 32.0 °F 42% 30.16 in 10.0 mi South 10.4 mph 17.3 mph N/A   Partly Cloudy
1:53 AM 54.0 °F 32.0 °F 43% 30.16 in 10.0 mi South 11.5 mph 19.6 mph N/A   Partly Cloudy
2:53 AM 53.1 °F 36.0 °F 52% 30.16 in 10.0 mi South 12.7 mph 20.7 mph 0.00 in Rain Light Rain
4:53 AM 48.9 °F 42.1 °F 77% 30.14 in 10.0 mi SSW 13.8 mph 21.9 mph N/A   Overcast
6:53 AM 48.9 °F 43.0 °F 80% 30.14 in 10.0 mi South 13.8 mph 20.7 mph N/A   Overcast
7:53 AM 48.9 °F 44.1 °F 83% 30.15 in 10.0 mi South 11.5 mph - N/A   Mostly Cloudy
8:53 AM 50.0 °F 44.1 °F 80% 30.16 in 10.0 mi South 11.5 mph - N/A   Overcast
10:53 AM 57.0 °F 45.0 °F 64% 30.14 in 10.0 mi SSW 12.7 mph - N/A   Clear
11:53 AM 60.1 °F 45.0 °F 57% 30.12 in 10.0 mi SSW 15.0 mph - N/A   Clear
12:53 PM 62.1 °F 45.0 °F 53% 30.09 in 10.0 mi SSW 15.0 mph - N/A   Clear
1:53 PM 62.1 °F 46.0 °F 56% 30.07 in 10.0 mi SSW 11.5 mph - N/A   Clear
2:53 PM 63.0 °F 46.9 °F 56% 30.06 in 10.0 mi SSW 11.5 mph - N/A   Clear
3:53 PM 62.1 °F 46.9 °F 58% 30.08 in 10.0 mi SSW 10.4 mph - N/A   Clear
4:53 PM 60.1 °F 46.9 °F 62% 30.08 in 10.0 mi SSW 5.8 mph - N/A   Clear
5:53 PM 57.9 °F 46.9 °F 67% 30.09 in 10.0 mi South 6.9 mph - N/A   Clear
6:53 PM 55.9 °F 46.9 °F 72% 30.10 in 10.0 mi SSW 5.8 mph - N/A   Clear
7:53 PM 54.0 °F 46.0 °F 75% 30.10 in 10.0 mi SSW 5.8 mph - N/A   Clear
8:53 PM 53.1 °F 46.0 °F 77% 30.10 in 10.0 mi SSW 8.1 mph - N/A   Clear
9:53 PM 52.0 °F 46.0 °F 80% 30.10 in 10.0 mi SW 6.9 mph - N/A   Clear
10:53 PM 51.1 °F 46.0 °F 83% 30.11 in 10.0 mi WSW 4.6 mph - N/A   Clear
11:53 PM 48.9 °F 46.0 °F 90% 30.11 in 10.0 mi WSW 5.8 mph - N/A   Clear